QPF
0.00 0.00 0.00 0.00 0.00 0.00 0.00 0.00 0.00 0.00 0.00 0.00 0.00 0.00 0.00 0.00 0.00 0.00 0.00 0.01 0.03 0.00 0.00 0.00 0.00 0.00 0.00 0.01 0.00 0.00 0.00 0.03 0.11 0.16 0.13 0.09 0.04 0.04
0.00 0.00 0.00 0.00 0.00 0.00 0.00 0.00 0.00 0.00 0.00 0.00 0.00 0.00 0.00 0.00 0.00 0.00 0.00 0.00 0.00 0.00 0.00 0.00 0.00 0.00 0.00 0.00 0.00 0.00 0.00 0.00 0.00 0.03 0.08 0.05 0.02 0.03
0.00 0.00 0.00 0.00 0.00 0.00 0.00 0.00 0.00 0.00 0.00 0.00 0.00 0.00 0.00 0.00 0.00 0.00 0.00 0.00 0.00 0.00 0.00 0.00 0.00 0.00 0.00 0.00 0.00 0.00 0.00 0.00 0.00 0.00 0.01 0.00 0.00 0.00
0.00 0.00 0.00 0.00 0.00 0.00 0.00 0.00 0.00 0.00 0.00 0.00 0.00 0.00 0.00 0.00 0.00 0.00 0.00 0.00 0.00 0.00 0.00 0.00 0.00 0.00 0.00 0.00 0.00 0.00 0.00 0.00 0.00 0.00 0.00 0.00 0.01 0.00
0.00 0.00 0.00 0.00 0.00 0.00 0.00 0.00 0.00 0.00 0.00 0.00 0.00 0.00 0.00 0.00 0.00 0.00 0.00 0.00 0.00 0.00 0.00 0.00 0.00 0.00 0.00 0.00 0.00 0.00 0.00 0.01 0.03 0.01 0.00 0.00 0.00 0.00
0.00 0.00 0.01 0.00 0.00 0.00 0.00 0.00 0.00 0.00 0.00 0.00 0.00 0.00 0.00 0.00 0.00 0.00 0.00 0.00 0.00 0.00 0.00 0.00 0.00 0.00 0.00 0.00 0.00 0.00 0.00 0.00 0.03 0.06 0.03 0.04 0.06 0.04
0.00 0.00 0.00 0.00 0.00 0.00 0.00 0.00 0.00 0.00 0.00 0.00 0.00 0.00 0.00 0.00 0.00 0.00 0.00 0.00 0.00 0.00 0.00 0.01 0.00 0.01 0.01 0.00 0.00 0.00 0.00 0.00 0.00 0.00 0.00 0.00 0.01 0.03
0.00 0.00 0.00 0.00 0.00 0.00 0.00 0.00 0.00 0.00 0.00 0.00 0.00 0.01 0.01 0.00 0.00 0.00 0.00 0.00 0.00 0.00 0.00 0.01 0.01 0.03 0.02 0.01 0.00 0.00 0.00 0.00 0.00 0.00 0.00 0.00 0.00 0.00
0.00 0.00 0.00 0.00 0.00 0.00 0.00 0.00 0.00 0.00 0.00 0.00 0.01 0.02 0.02 0.01 0.00 0.00 0.00 0.00 0.00 0.01 0.00 0.01 0.02 0.08 0.01 0.00 0.00 0.00 0.00 0.00 0.00 0.00 0.00 0.00 0.00 0.00
0.00 0.00 0.00 0.00 0.00 0.00 0.00 0.00 0.00 0.00 0.01 0.02 0.02 0.01 0.00 0.00 0.00 0.00 0.00 0.00 0.01 0.03 0.00 0.00 0.01 0.03 0.01 0.00 0.00 0.00 0.00 0.00 0.00 0.00 0.00 0.00 0.00 0.00
0.00 0.00 0.00 0.00 0.00 0.00 0.00 0.00 0.00 0.00 0.00 0.00 0.00 0.00 0.00 0.00 0.00 0.00 0.00 0.00 0.01 0.01 0.00 0.00 0.00 0.01 0.02 0.01 0.00 0.00 0.00 0.00 0.00 0.00 0.00 0.00 0.00 0.00
0.00 0.00 0.00 0.00 0.00 0.00 0.00 0.00 0.00 0.00 0.00 0.00 0.00 0.00 0.00 0.00 0.00 0.00 0.00 0.00 0.00 0.00 0.00 0.00 0.00 0.00 0.00 0.03 0.01 0.00 0.00 0.00 0.00 0.00 0.00 0.00 0.00 0.00
0.00 0.00 0.00 0.00 0.00 0.00 0.00 0.00 0.00 0.00 0.00 0.00 0.00 0.00 0.00 0.00 0.00 0.00 0.00 0.00 0.00 0.00 0.00 0.00 0.00 0.00 0.00 0.00 0.01 0.01 0.01 0.00 0.00 0.00 0.00 0.00 0.00 0.00
0.00 0.00 0.00 0.00 0.00 0.00 0.00 0.00 0.00 0.00 0.00 0.00 0.00 0.00 0.00 0.00 0.00 0.00 0.00 0.00 0.00 0.00 0.00 0.00 0.00 0.00 0.00 0.00 0.00 0.00 0.00 0.00 0.00 0.00 0.00 0.00 0.00 0.00
0.00 0.00 0.00 0.00 0.00 0.00 0.00 0.00 0.00 0.00 0.00 0.00 0.00 0.00 0.00 0.00 0.00 0.00 0.00 0.00 0.00 0.00 0.00 0.00 0.00 0.00 0.00 0.00 0.00 0.00 0.00 0.00 0.00 0.00 0.00 0.00 0.00 0.00
0.00 0.00 0.00 0.00 0.00 0.00 0.00 0.00 0.00 0.00 0.00 0.00 0.00 0.00 0.00 0.00 0.00 0.00 0.00 0.00 0.00 0.00 0.00 0.00 0.00 0.00 0.00 0.00 0.00 0.00 0.00 0.00 0.00 0.00 0.00 0.00 0.00 0.00
0.00 0.00 0.00 0.00 0.00 0.00 0.00 0.00 0.00 0.00 0.00 0.00 0.00 0.00 0.00 0.00 0.00 0.00 0.00 0.00 0.00 0.00 0.00 0.00 0.00 0.00 0.00 0.00 0.00 0.00 0.00 0.00 0.00 0.00 0.00 0.00 0.00 0.00
0.00 0.00 0.00 0.00 0.00 0.00 0.00 0.00 0.00 0.00 0.00 0.00 0.00 0.00 0.00 0.00 0.00 0.00 0.00 0.00 0.00 0.00 0.00 0.00 0.00 0.00 0.00 0.00 0.00 0.00 0.00 0.00 0.00 0.00 0.00 0.00 0.00 0.00
0.00 0.00 0.00 0.00 0.00 0.00 0.00 0.00 0.00 0.00 0.00 0.00 0.00 0.00 0.00 0.00 0.00 0.00 0.00 0.00 0.00 0.00 0.00 0.00 0.00 0.00 0.00 0.00 0.00 0.00 0.00 0.00 0.00 0.00 0.00 0.00 0.00 0.00
0.00 0.00 0.00 0.00 0.00 0.00 0.00 0.00 0.00 0.00 0.00 0.00 0.00 0.00 0.00 0.00 0.00 0.00 0.00 0.00 0.00 0.00 0.00 0.00 0.00 0.00 0.00 0.00 0.00 0.00 0.00 0.00 0.00 0.00 0.00 0.00 0.00 0.00
0.00 0.00 0.00 0.00 0.00 0.00 0.00 0.00 0.00 0.00 0.00 0.00 0.00 0.00 0.00 0.00 0.00 0.00 0.00 0.00 0.00 0.00 0.00 0.00 0.00 0.00 0.00 0.00 0.00 0.00 0.00 0.00 0.00 0.00 0.00 0.00 0.00 0.00
0.00 0.00 0.00 0.00 0.00 0.00 0.00 0.00 0.00 0.00 0.00 0.00 0.00 0.00 0.00 0.00 0.00 0.00 0.00 0.00 0.00 0.00 0.00 0.00 0.00 0.00 0.00 0.00 0.00 0.00 0.00 0.00 0.00 0.00 0.00 0.00 0.00 0.00
0.01 0.01 0.02 0.01 0.01 0.01 0.02 0.02 0.01 0.01 0.01 0.00 0.00 0.00 0.00 0.00 0.00 0.00 0.00 0.00 0.00 0.00 0.00 0.00 0.00 0.00 0.00 0.00 0.00 0.00 0.00 0.00 0.00 0.00 0.00 0.00 0.00 0.00
MSLP
1014.87 1014.72 1014.64 1014.54 1014.43 1014.06 1013.59 1013.76 1013.94 1014.11 1013.45 1012.71 1012.45 1012.07 1011.75 1011.60 1011.61 1011.43 1011.41 1011.85 1012.18 1012.50 1012.78 1012.93 1013.17 1013.44 1013.81 1014.19 1014.51 1014.81 1015.06 1015.27 1015.31 1015.29 1015.56 1016.18 1016.52 1016.74
1015.30 1015.21 1014.98 1014.75 1014.56 1014.21 1014.04 1013.93 1013.95 1014.15 1013.95 1013.30 1013.03 1012.83 1012.30 1011.96 1011.66 1011.63 1011.57 1011.78 1011.72 1011.95 1012.37 1012.82 1013.15 1013.35 1013.48 1013.72 1014.04 1014.30 1014.52 1014.70 1014.86 1014.87 1015.00 1015.32 1015.67 1015.87
1015.18 1015.16 1015.06 1014.85 1014.69 1014.46 1014.25 1014.10 1014.19 1014.19 1014.23 1013.85 1013.46 1012.87 1012.54 1012.19 1012.00 1011.83 1011.71 1011.57 1011.35 1011.48 1012.08 1012.47 1012.76 1013.00 1013.17 1013.37 1013.61 1013.83 1014.01 1014.20 1014.46 1014.60 1014.74 1014.87 1015.00 1015.13
1015.33 1015.50 1015.39 1015.23 1015.07 1014.85 1014.56 1014.31 1014.03 1013.83 1014.14 1014.17 1013.67 1013.12 1012.76 1012.24 1012.13 1012.15 1011.86 1011.46 1011.28 1011.48 1011.61 1011.78 1012.45 1012.62 1012.72 1012.87 1013.02 1013.28 1013.55 1013.82 1014.01 1014.26 1014.46 1014.59 1014.65 1014.90
1015.41 1015.66 1015.62 1015.71 1015.71 1015.55 1015.27 1014.74 1014.32 1014.23 1014.25 1013.94 1013.75 1013.13 1012.61 1012.07 1012.03 1012.13 1011.97 1011.66 1011.01 1010.75 1011.23 1011.66 1011.82 1012.11 1012.42 1012.90 1013.02 1013.07 1013.27 1013.49 1013.75 1013.93 1014.12 1014.33 1014.50 1014.45
1015.68 1015.63 1015.67 1015.90 1015.90 1016.06 1015.90 1015.55 1015.27 1014.84 1014.44 1014.25 1013.79 1013.26 1013.23 1012.90 1012.62 1012.64 1012.39 1012.14 1011.85 1011.15 1011.29 1011.46 1011.74 1011.92 1012.41 1012.69 1012.94 1013.07 1013.17 1013.37 1013.48 1013.61 1013.87 1013.80 1013.74 1013.72
1015.86 1015.83 1015.69 1015.82 1015.91 1016.07 1016.17 1015.98 1015.78 1015.58 1015.12 1014.73 1014.39 1013.82 1013.62 1013.64 1013.69 1013.51 1013.19 1012.89 1012.41 1011.83 1011.67 1011.65 1012.00 1011.91 1012.41 1012.62 1012.86 1013.04 1013.17 1013.17 1013.23 1013.29 1013.39 1013.41 1013.33 1013.23
1015.83 1015.94 1015.83 1015.56 1015.92 1016.02 1016.10 1016.05 1015.99 1015.86 1015.66 1015.27 1014.77 1014.71 1014.44 1014.24 1014.28 1014.35 1014.02 1013.65 1013.29 1012.34 1012.18 1012.20 1012.01 1012.56 1012.98 1013.11 1013.30 1013.36 1013.41 1013.34 1013.37 1013.40 1013.37 1013.27 1013.18 1013.12
1015.81 1015.92 1015.94 1015.60 1015.74 1016.00 1016.06 1015.88 1015.51 1015.28 1015.56 1015.36 1015.25 1014.95 1014.91 1014.65 1014.71 1014.63 1014.43 1014.24 1013.73 1012.94 1012.61 1012.39 1012.33 1012.81 1013.23 1013.57 1013.48 1013.57 1013.50 1013.32 1013.39 1013.57 1013.64 1013.57 1013.48 1013.34
1015.62 1015.84 1015.96 1015.93 1016.18 1016.37 1016.36 1015.99 1015.49 1015.01 1014.74 1014.95 1015.04 1014.80 1014.82 1014.73 1014.78 1014.85 1014.63 1014.17 1013.66 1013.04 1013.09 1012.89 1012.36 1012.83 1013.16 1013.61 1013.59 1013.52 1013.30 1013.20 1013.20 1013.26 1013.21 1013.12 1013.02 1012.92
1015.21 1015.38 1015.72 1015.88 1016.20 1016.38 1016.45 1016.10 1015.44 1014.95 1014.53 1014.52 1014.59 1014.52 1014.57 1014.51 1014.59 1014.71 1014.21 1014.10 1013.63 1013.55 1013.63 1013.43 1012.69 1012.74 1012.90 1013.16 1013.09 1013.26 1013.33 1013.28 1013.28 1013.20 1013.01 1012.99 1012.83 1012.50
1014.98 1014.97 1015.15 1015.58 1016.11 1016.27 1016.35 1016.17 1015.78 1015.42 1015.10 1014.60 1014.43 1014.17 1014.27 1014.31 1014.38 1014.48 1014.29 1014.41 1014.17 1013.80 1014.17 1014.04 1013.18 1012.93 1012.75 1012.82 1012.90 1013.15 1013.25 1013.18 1013.32 1013.34 1013.30 1012.97 1012.76 1012.66
1015.51 1015.39 1015.58 1015.93 1016.20 1016.25 1016.31 1016.11 1015.99 1015.84 1015.31 1014.81 1014.33 1013.84 1013.59 1013.57 1013.80 1013.92 1014.10 1014.51 1014.47 1014.33 1014.59 1014.30 1013.82 1013.39 1013.23 1013.18 1012.84 1012.65 1012.55 1012.75 1012.92 1012.87 1013.03 1012.97 1012.69 1012.72
1016.03 1015.80 1016.02 1016.17 1016.10 1015.91 1015.99 1015.81 1015.63 1015.60 1015.18 1014.58 1014.09 1013.29 1013.01 1013.20 1013.72 1013.87 1013.79 1014.13 1014.30 1014.44 1014.36 1014.33 1014.29 1014.08 1013.94 1013.90 1013.49 1012.69 1012.48 1012.35 1012.22 1012.36 1012.35 1012.43 1012.42 1012.51
1015.83 1015.52 1015.61 1015.79 1015.57 1015.28 1015.13 1015.17 1015.37 1015.30 1014.81 1014.42 1013.66 1013.30 1012.97 1013.15 1013.32 1013.48 1013.53 1013.71 1013.90 1014.03 1014.07 1014.07 1014.13 1014.10 1014.19 1014.02 1013.69 1013.17 1012.98 1012.58 1012.33 1012.30 1012.22 1012.33 1012.42 1012.24
1015.44 1015.22 1015.12 1015.03 1014.87 1014.69 1014.66 1014.61 1014.69 1014.59 1014.37 1013.84 1013.70 1013.47 1013.14 1013.14 1013.34 1013.33 1013.45 1013.44 1013.72 1013.67 1013.50 1013.57 1013.75 1013.89 1013.96 1013.70 1013.46 1013.41 1013.16 1012.98 1012.51 1012.50 1012.51 1012.38 1012.14 1012.06
1014.99 1014.75 1014.53 1014.43 1014.28 1014.04 1013.93 1013.87 1013.79 1013.67 1013.54 1013.33 1013.43 1013.33 1013.24 1013.15 1013.05 1012.98 1013.15 1013.37 1013.40 1013.16 1013.39 1013.30 1013.28 1013.31 1013.23 1013.08 1013.17 1012.99 1012.79 1012.55 1012.41 1012.51 1012.45 1012.51 1012.27 1012.12
1014.86 1014.65 1014.25 1013.84 1013.36 1012.87 1012.77 1012.63 1012.50 1012.51 1012.44 1012.47 1012.70 1012.90 1012.97 1012.96 1012.89 1012.75 1012.77 1012.96 1013.09 1012.91 1012.65 1012.47 1012.94 1013.11 1012.78 1012.33 1011.96 1012.24 1012.44 1012.53 1012.45 1012.43 1012.45 1012.55 1012.26 1011.79
1014.71 1014.43 1014.10 1013.63 1013.08 1012.55 1012.18 1012.03 1011.99 1011.89 1011.94 1012.06 1012.28 1012.54 1012.66 1012.75 1012.68 1012.56 1012.54 1012.65 1012.69 1012.48 1012.25 1012.08 1012.08 1012.24 1012.36 1012.11 1011.73 1011.84 1012.20 1012.34 1012.34 1012.40 1012.15 1012.06 1011.75 1011.33
1014.23 1013.78 1013.34 1012.86 1012.44 1012.07 1011.83 1011.62 1011.58 1011.49 1011.55 1011.63 1011.76 1011.98 1012.15 1012.20 1012.23 1012.20 1012.11 1012.09 1012.05 1011.91 1011.74 1011.56 1011.55 1011.67 1011.87 1011.80 1011.81 1011.62 1011.35 1011.63 1011.88 1011.79 1011.64 1011.09 1010.66 1010.27
1012.92 1012.68 1012.25 1011.86 1011.58 1011.32 1011.02 1010.97 1011.05 1011.19 1011.28 1011.48 1011.52 1011.55 1011.55 1011.55 1011.61 1011.61 1011.60 1011.59 1011.48 1011.46 1011.50 1011.35 1011.01 1010.96 1010.92 1011.00 1011.23 1011.07 1010.60 1010.30 1010.45 1010.57 1010.43 1010.39 1010.21 1009.91
1012.58 1011.99 1011.23 1010.88 1010.66 1010.46 1010.32 1010.30 1010.41 1010.52 1010.72 1010.87 1011.04 1011.07 1010.99 1010.92 1010.95 1011.02 1011.05 1011.02 1010.92 1010.83 1010.68 1010.51 1010.29 1010.40 1010.66 1010.64 1010.52 1010.26 1009.89 1009.49 1009.32 1009.23 1009.13 1009.38 1009.59 1009.23
1013.36 1012.92 1012.59 1012.36 1012.30 1011.49 1011.62 1011.35 1010.76 1010.09 1010.08 1009.95 1009.85 1009.87 1010.02 1010.23 1010.20 1010.26 1010.33 1010.36 1010.31 1010.19 1010.04 1009.92 1009.79 1009.64 1009.67 1009.60 1009.56 1009.31 1009.06 1008.87 1008.87 1008.86 1008.69 1007.97 1007.80 1007.57
Thickness
5766 5767 5765 5766 5767 5769 5773 5770 5762 5749 5754 5769 5771 5783 5784 5784 5783 5783 5784 5782 5780 5776 5774 5773 5771 5769 5766 5762 5758 5754 5751 5748 5745 5742 5737 5735 5731 5732
5760 5759 5760 5763 5764 5766 5765 5764 5762 5755 5747 5762 5764 5769 5774 5776 5778 5776 5778 5777 5778 5777 5773 5769 5766 5764 5764 5762 5758 5755 5752 5749 5747 5745 5743 5740 5737 5736
5758 5756 5756 5758 5758 5760 5761 5761 5757 5754 5746 5752 5758 5764 5765 5769 5770 5770 5770 5772 5774 5775 5769 5766 5763 5761 5761 5760 5757 5754 5751 5749 5746 5744 5742 5740 5739 5737
5751 5748 5747 5749 5749 5751 5753 5754 5756 5756 5748 5740 5748 5753 5756 5763 5763 5761 5764 5765 5768 5768 5766 5766 5759 5758 5759 5758 5756 5753 5750 5747 5744 5742 5740 5740 5739 5736
5745 5741 5741 5739 5736 5737 5739 5743 5747 5746 5744 5744 5741 5748 5752 5759 5756 5755 5755 5758 5762 5765 5763 5759 5758 5756 5754 5751 5750 5749 5747 5746 5742 5740 5739 5737 5736 5738
5736 5736 5733 5730 5728 5725 5726 5728 5730 5733 5736 5734 5736 5739 5738 5742 5745 5740 5740 5745 5747 5754 5754 5752 5751 5751 5747 5745 5743 5743 5743 5741 5741 5739 5736 5737 5738 5738
5727 5726 5727 5724 5720 5718 5715 5717 5718 5718 5721 5722 5722 5726 5727 5724 5722 5727 5727 5730 5736 5740 5741 5746 5744 5744 5740 5738 5737 5736 5735 5735 5735 5735 5735 5735 5734 5736
5718 5716 5716 5718 5711 5710 5708 5708 5708 5706 5706 5709 5711 5707 5710 5713 5712 5710 5713 5714 5712 5730 5728 5731 5736 5732 5727 5727 5727 5725 5725 5726 5726 5725 5726 5727 5729 5730
5710 5707 5705 5708 5704 5701 5699 5701 5703 5704 5700 5701 5699 5701 5700 5703 5702 5700 5702 5703 5706 5716 5719 5720 5726 5720 5717 5717 5717 5716 5715 5717 5717 5716 5715 5716 5717 5718
5704 5699 5696 5695 5690 5688 5686 5689 5693 5696 5698 5696 5695 5698 5697 5698 5696 5694 5694 5698 5703 5709 5710 5705 5717 5711 5709 5705 5706 5707 5710 5710 5709 5708 5708 5709 5710 5711
5699 5695 5690 5686 5681 5679 5677 5679 5684 5687 5690 5691 5690 5692 5691 5692 5691 5689 5690 5689 5693 5695 5696 5697 5704 5704 5703 5700 5701 5700 5699 5700 5700 5700 5701 5700 5701 5703
5692 5689 5684 5681 5673 5671 5670 5671 5672 5675 5677 5681 5684 5687 5686 5686 5686 5684 5683 5679 5682 5685 5684 5683 5691 5693 5691 5696 5695 5692 5691 5691 5690 5690 5689 5690 5691 5692
5677 5676 5673 5666 5664 5663 5661 5663 5664 5663 5668 5672 5676 5681 5684 5684 5683 5679 5678 5673 5671 5673 5671 5674 5677 5680 5680 5679 5684 5688 5687 5685 5683 5683 5682 5681 5682 5682
5664 5665 5660 5657 5656 5657 5655 5657 5657 5656 5660 5665 5669 5676 5679 5677 5673 5672 5671 5668 5666 5665 5664 5665 5664 5665 5664 5663 5665 5676 5679 5679 5679 5677 5676 5674 5673 5672
5658 5659 5655 5651 5652 5654 5653 5652 5649 5650 5653 5656 5662 5666 5670 5668 5667 5665 5664 5661 5660 5658 5657 5658 5657 5657 5655 5654 5656 5660 5661 5666 5669 5668 5667 5665 5664 5663
5653 5653 5651 5651 5651 5650 5647 5647 5647 5647 5648 5652 5653 5655 5659 5658 5655 5656 5653 5653 5650 5651 5652 5651 5650 5649 5647 5648 5649 5647 5651 5650 5655 5656 5655 5655 5655 5654
5647 5648 5647 5645 5644 5645 5646 5645 5645 5645 5645 5647 5646 5646 5647 5647 5647 5648 5645 5643 5641 5643 5641 5643 5644 5643 5643 5643 5640 5641 5643 5645 5645 5644 5644 5642 5642 5642
5639 5637 5638 5640 5643 5646 5646 5646 5647 5646 5646 5644 5642 5640 5637 5637 5637 5639 5638 5635 5633 5635 5637 5640 5635 5632 5635 5638 5641 5637 5636 5634 5634 5633 5632 5629 5628 5632
5632 5630 5630 5631 5634 5637 5639 5640 5639 5640 5641 5638 5635 5632 5630 5628 5627 5628 5628 5627 5626 5628 5630 5632 5631 5628 5622 5621 5631 5630 5624 5623 5622 5619 5620 5620 5621 5623
5626 5627 5626 5628 5630 5631 5631 5632 5631 5631 5630 5629 5627 5625 5622 5621 5620 5620 5621 5620 5620 5621 5623 5625 5624 5622 5618 5616 5615 5617 5620 5617 5614 5612 5612 5616 5618 5620
5630 5625 5625 5626 5626 5627 5627 5626 5624 5622 5621 5618 5617 5616 5615 5615 5613 5613 5613 5613 5614 5613 5612 5613 5616 5619 5617 5616 5609 5609 5613 5614 5612 5609 5610 5607 5606 5608
5619 5622 5624 5625 5625 5625 5624 5623 5620 5617 5614 5611 5609 5608 5608 5608 5607 5606 5606 5605 5605 5606 5607 5609 5611 5609 5606 5603 5602 5604 5606 5609 5609 5609 5607 5604 5599 5598
5599 5600 5600 5600 5600 5606 5603 5604 5607 5610 5609 5610 5609 5607 5605 5601 5601 5601 5600 5599 5599 5599 5600 5601 5602 5602 5601 5600 5599 5601 5602 5602 5601 5597 5598 5602 5602 5601